Weather History for Kalamata, Greece

Change the Weather History Date:

Wednesday, November 27, 2013

  Actual Average Record
Temperature  
Mean Temperature 53 °F -  
Max Temperature 60 °F 63 °F 73 °F (2010)
Min Temperature 46 °F 46 °F 35 °F (2004)
Degree Days  
Heating Degree Days 12    
Growing Degree Days 3 (Base 50)    
Moisture  
Dew Point 43 °F    
Average Humidity 74    
Maximum Humidity 94    
Minimum Humidity 45    
Precipitation  
Precipitation 0.00 in 0.20 in - ()
Sea Level Pressure  
Sea Level Pressure 30.04 in    
Wind  
Wind Speed 4 mph ()    
Max Wind Speed 9 mph    
Max Gust Speed -    
Visibility 5.9 miles    
Events Rain    
Averages and records for this station are not official NWS values.
T = Trace of Precipitation, MM = Missing Value Source: Averaged Metar Reports

Daily Weather History Graph

Daily Weather History Graph

Search for Another Location

Airport:

Trip Planner

Search our weather history database for the weather conditions in past years. The results will help you decide how hot, cold, wet, or windy it might be!

Date:

Astronomy

Nov. 27, 2013 Rise Set
Actual Time 7:22 AM EET 5:16 PM EET
Civil Twilight 6:54 AM EET 5:44 PM EET
Nautical Twilight 6:22 AM EET 6:16 PM EET
Astronomical Twilight 5:51 AM EET 6:47 PM EET
Moon 1:14 AM EET (11/27) 1:36 PM EET (11/27)
Length of Visible Light 10h 50m
Length of Day
9h 53m
Waning Crescent, 34% of the Moon is Illuminated
Nov 27
Waning Crescent
Dec 3
New
Dec 9
First Quarter
Dec 17
Full
Dec 25
Last Quarter

Hourly Weather History & Observations

Time (EET) Temp. Windchill Dew Point Humidity Pressure Visibility Wind Dir Wind Speed Gust Speed Precip Events Conditions
12:20 AM 50.0 °F - 48.2 °F 94% 29.86 in - Variable 2.3 mph - N/A   Unknown
12:50 AM 48.2 °F - 46.4 °F 93% 29.86 in - Calm Calm - N/A   Unknown
1:20 AM 48.2 °F - 46.4 °F 93% 29.86 in - Variable 2.3 mph - N/A   Unknown
1:50 AM 50.0 °F - 48.2 °F 94% 29.86 in - North 4.6 mph - N/A Rain Light Rain
2:20 AM 50.0 °F - 48.2 °F 94% 29.86 in - Variable 3.5 mph - N/A Rain Light Rain
2:50 AM 51.8 °F - 48.2 °F 88% 29.89 in - North 6.9 mph - N/A   Unknown
3:20 AM 51.8 °F - 48.2 °F 88% 29.89 in - North 8.1 mph - N/A   Unknown
3:50 AM 51.8 °F - 46.4 °F 82% 29.89 in - NNW 8.1 mph - N/A   Unknown
4:20 AM 51.8 °F - 44.6 °F 76% 29.92 in - North 8.1 mph - N/A Rain Light Rain
4:50 AM 50.0 °F - 44.6 °F 82% 29.92 in - North 5.8 mph - N/A   Unknown
5:20 AM 50.0 °F - 46.4 °F 87% 29.95 in 6.2 mi NW 5.8 mph - N/A   Mostly Cloudy
5:50 AM 50.0 °F - 46.4 °F 87% 29.95 in 6.2 mi North 6.9 mph - N/A   Scattered Clouds
6:20 AM 50.0 °F - 44.6 °F 82% 29.95 in 6.2 mi NNW 5.8 mph - N/A   Scattered Clouds
6:50 AM 48.2 °F - 44.6 °F 87% 29.95 in 6.2 mi NW 4.6 mph - N/A   Scattered Clouds
7:20 AM 46.4 °F - 44.6 °F 93% 29.98 in 5.0 mi Calm Calm - N/A   Scattered Clouds
7:50 AM 46.4 °F - 42.8 °F 87% 29.98 in 5.0 mi Calm Calm - N/A   Scattered Clouds
8:20 AM 46.4 °F - 44.6 °F 93% 30.01 in 5.0 mi Calm Calm - N/A   Scattered Clouds
8:50 AM 50.0 °F - 46.4 °F 87% 30.01 in 5.0 mi Calm Calm - N/A   Partly Cloudy
9:20 AM 51.8 °F - 46.4 °F 82% 30.01 in 5.0 mi NNW 4.6 mph - N/A   Partly Cloudy
9:50 AM 55.4 °F - 46.4 °F 72% 30.04 in 5.0 mi Calm Calm - N/A   Partly Cloudy
10:20 AM 57.2 °F - 46.4 °F 67% 30.04 in 5.0 mi Calm Calm - N/A   Partly Cloudy
10:50 AM 59.0 °F - 39.2 °F 48% 30.04 in 5.6 mi NNE 5.8 mph - N/A   Scattered Clouds
11:20 AM 59.0 °F - 41.0 °F 51% 30.06 in 6.2 mi North 5.8 mph - N/A   Scattered Clouds
11:50 AM 59.0 °F - 41.0 °F 51% 30.06 in 6.2 mi North 4.6 mph - N/A   Scattered Clouds
12:20 PM 57.2 °F - 41.0 °F 55% 30.06 in 6.2 mi NNW 9.2 mph - N/A   Scattered Clouds
12:50 PM 57.2 °F - 42.8 °F 59% 30.06 in 6.2 mi North 6.9 mph - N/A   Mostly Cloudy
1:20 PM 59.0 °F - 41.0 °F 51% 30.06 in 6.2 mi North 4.6 mph - N/A   Mostly Cloudy
1:50 PM 60.8 °F - 39.2 °F 45% 30.06 in 6.2 mi North 6.9 mph - N/A   Mostly Cloudy
2:20 PM 59.0 °F - 41.0 °F 51% 30.06 in 6.2 mi North 4.6 mph - N/A   Scattered Clouds
2:50 PM 59.0 °F - 41.0 °F 51% 30.06 in 6.2 mi North 4.6 mph - N/A   Scattered Clouds
3:20 PM 60.8 °F - 41.0 °F 48% 30.09 in 6.2 mi North 5.8 mph - N/A   Scattered Clouds
3:50 PM 59.0 °F - 39.2 °F 48% 30.09 in 6.2 mi North 4.6 mph - N/A   Scattered Clouds
4:20 PM 59.0 °F - 37.4 °F 45% 30.09 in 6.2 mi Calm Calm - N/A   Partly Cloudy
4:50 PM 57.2 °F - 41.0 °F 55% 30.09 in 6.2 mi NNW 4.6 mph - N/A   Partly Cloudy
5:20 PM 53.6 °F - 41.0 °F 62% 30.12 in 6.2 mi NNW 4.6 mph - N/A   Partly Cloudy
5:50 PM 51.8 °F - 42.8 °F 71% 30.12 in 6.2 mi Calm Calm - N/A   Partly Cloudy
6:20 PM 50.0 °F - 42.8 °F 76% 30.15 in 6.2 mi Calm Calm - N/A   Scattered Clouds
6:50 PM 48.2 °F - 41.0 °F 76% 30.15 in 6.2 mi NW 4.6 mph - N/A   Partly Cloudy
7:20 PM 48.2 °F - 41.0 °F 76% 30.15 in 6.2 mi NNW 4.6 mph - N/A   Partly Cloudy
7:50 PM 46.4 °F - 41.0 °F 81% 30.18 in 6.2 mi Calm Calm - N/A   Partly Cloudy
8:20 PM 46.4 °F 44.3 °F 41.0 °F 81% 30.18 in - WNW 4.6 mph - N/A   Unknown
8:50 PM 46.4 °F 45.2 °F 41.0 °F 81% 30.18 in - Variable 3.5 mph - N/A   Unknown
9:20 PM 46.4 °F - 39.2 °F 76% 30.21 in - Variable 2.3 mph - N/A   Unknown
9:50 PM 46.4 °F 44.3 °F 39.2 °F 76% 30.21 in - NW 4.6 mph - N/A   Unknown
10:20 PM 46.4 °F 44.3 °F 41.0 °F 81% 30.21 in - NW 4.6 mph - N/A Rain Light Rain
10:50 PM 46.4 °F 44.3 °F 41.0 °F 81% 30.24 in - NNW 4.6 mph - N/A   Unknown
11:20 PM 46.4 °F 44.3 °F 41.0 °F 81% 30.24 in - NNW 4.6 mph - N/A   Unknown
11:50 PM 46.4 °F 44.3 °F 41.0 °F 81% 30.24 in - NW 4.6 mph - N/A   Unknown